Orbital Elements at Epoch 2459200.5 (2020-Dec-17.0) TDB
Reference: JPL 23 (heliocentric ecliptic J2000)
Element | Value | Uncertainty (1-sigma) | Units |
e | .1293909280741356 | 3.9766e-08 | |
a | 2.383366819123546 | 7.8485e-09 | au |
q | 2.07498077445605 | 9.3332e-08 | au |
i | 2.630690909589068 | 4.443e-06 | deg |
node | 14.11905240880384 | 6.42e-05 | deg |
peri | 184.9979033577485 | 6.5574e-05 | deg |
M | 72.51419077272689 | 1.1805e-05 | deg |
tp | 2458929.789398272192 (2020-Mar-21.28939827) | 4.4372e-05 | TDB |
period | 1343.955101525657 3.68 | 6.6385e-06 1.818e-08 | d yr |
n | .2678660913532961 | 1.3231e-09 | deg/d |
Q | 2.691752863791043 | 8.864e-09 | au |
|
| | Orbit Determination Parameters
Additional Information
|